Tracking 30685 objects as of 17-Jun-2025
HD Live streaming from Space Station
objects crossing your sky now

NOAA 16 DEB

Track NOAA 16 DEB now!
10-day predictions


NORAD ID: 41421
Int'l Code: 2000-055LA
Perigee: 681.3 km
Apogee: 731.8 km
Inclination: 99.0 °
Period: 98.8 minutes
Semi major axis: 7077 km
RCS: Unknown
Launch date: September 21, 2000
Source: United States (US)
Launch site: AIR FORCE WESTERN TEST RANGE (AFWTR)

Note: This is SATELLITE DEBRIS
Your satellite tracking list
Your tracking list is empty




NASA's NSSDC Master Catalog

Two Line Element Set (TLE):
1 41421U 00055LA  25167.00343759  .00009266  00000-0  20053-2 0  9999
2 41421  98.9670   1.2769 0035707  99.5746 260.9488 14.58074816485198
Source of the keplerian elements: AFSPC